Home   Weather   Sendai   Past weeks

Flag for Japan Past Weather in Sendai, Japan — Yesterday and Last 2 Weeks

Now
63 °F

Partly sunny.


Feels Like: 63 °F
Forecast: 58 / 62 °F
Wind: 3 mph from Southwest

Location: Sendai Airport

Current Time: May 26, 2017 at 8:55:27 am

Latest Report: May 26, 2017 at 8:00 am


Visibility: 4 mi

Pressure: 29.71 "Hg

Humidity: 88%

Dew Point: 59 °F

Location of SendaiLocation

Past Weather in Sendai — Graph

°F

Sendai Temperature Yesterday

Maximum temperature yesterday: 63 °F (at 6:00 am)
Minimum temperature yesterday: 61 °F (at 7:42 am)
Average temperature yesterday: 61 °F

High & Low Weather Summary for the Past Weeks

 TemperatureHumidityPressure
High77 °F (May 22, 11:00 am)100% (May 13, 8:00 am)30.07 "Hg (May 13, 8:00 am)
Low52 °F (May 17, 6:00 am)33% (May 16, 2:00 pm)29.68 "Hg (May 11, 7:00 am)
Average62 °F78%29.87 "Hg
* Reported May 11 7:00 am — May 26 7:00 am, Sendai. Weather by CustomWeather, © 2017

Note: Actual official high and low records may vary slightly from our data, if they occured in-between our weather recording intervals... More about our weather records

Advertising

Sendai Weather History for the Previous 24 Hours

Scroll right to see more
 ConditionsComfort  
Time TempWeatherWind HumidityBarometerVisibility
7:00 am
Fri, May 26
63 °FFog.5 mph88%29.71 "Hg3 mi
6:00 am61 °FFog.1 mph94%29.71 "Hg3 mi
9:00 pm
Thu, May 25
61 °FPartly cloudy.3 mph94%29.74 "Hg5 mi
8:30 pm61 °FPassing clouds.3 mph94%29.74 "Hg5 mi
8:00 pm61 °FPassing clouds.3 mph94%29.74 "Hg5 mi
7:00 pm61 °FFog.1 mph88%29.71 "Hg3 mi
6:36 pm61 °FFog.1 mph88%29.71 "Hg2 mi
6:11 pm61 °FDrizzle. Fog.3 mph88%29.74 "Hg2 mi
6:00 pm61 °FLight rain. Broken clouds.5 mph88%29.74 "Hg5 mi
5:00 pm61 °FLight rain. Broken clouds.13 mph94%29.71 "Hg5 mi
4:20 pm61 °FLight rain. Broken clouds.7 mph94%29.71 "Hg4 mi
4:00 pm63 °FLight rain. Partly sunny.7 mph88%29.71 "Hg4 mi
3:00 pm63 °FFog.8 mph88%29.74 "Hg3 mi
2:23 pm61 °FLight rain. Broken clouds.6 mph94%29.74 "Hg4 mi
2:00 pm61 °FBroken clouds.5 mph94%29.74 "Hg4 mi
1:00 pm61 °FSprinkles. Broken clouds.7 mph94%29.74 "Hg4 mi
12:00 pm61 °FSprinkles. Broken clouds.7 mph94%29.74 "Hg5 mi
11:30 am61 °FSprinkles. Broken clouds.7 mph94%29.77 "Hg5 mi
11:00 am61 °FSprinkles. Partly sunny.7 mph94%29.77 "Hg5 mi
10:00 am61 °FSprinkles. Partly sunny.12 mph88%29.77 "HgN/A
9:00 am61 °FSprinkles. Broken clouds.10 mph94%29.77 "Hg4 mi
8:20 am61 °FSprinkles. Fog.14 mph94%29.77 "Hg3 mi
8:00 am61 °FSprinkles. Fog.12 mph94%29.77 "Hg2 mi
Weather by CustomWeather, © 2017

See weather overviewHow to use our weather pages